Retour au catalogue

USA 72

ActifMilitaireHEO
NORAD 21775·PAYLOAD·🇺🇸 United States

Lancé Nov 8, 1991 depuis Vandenberg Space Force Base

Loading…

Prochains Passages (prochaines 24 heures)

TLE

FraisSource: Space-Track

Époque: Sep 14, 2026, 09:19 UTC

1 21775U 91076A   26257.38831059  .00000015  00000-0  00000-0 0  9990
2 21775  63.3473 173.7375 3333135 273.0891  50.0432  5.53396010 47494

Suivez USA 72 en temps réel avec AllMySat

Download on the App Store